Time,TemperatureF,DewpointF,PressureIn,WindDirection,WindDirectionDegrees,WindSpeedMPH,WindSpeedGustMPH,Humidity,HourlyPrecipIn,Conditions,Clouds,dailyrainin,SoftwareType,DateUTC
2018-02-19 00:07:00,71.4,66.0,30.18,SSE,157,0.0,0.0,84,0.00,,,0.00,weatherlink.com 1.10,2018-02-19 05:07:00,
2018-02-19 00:22:00,71.3,66.0,30.18,SSE,157,0.0,0.0,84,0.00,,,0.00,weatherlink.com 1.10,2018-02-19 05:22:00,
2018-02-19 00:37:00,70.9,66.0,30.18,SSE,153,0.0,0.0,85,0.00,,,0.00,weatherlink.com 1.10,2018-02-19 05:37:00,
2018-02-19 00:52:00,70.6,66.0,30.18,SE,142,0.0,0.0,86,0.00,,,0.00,weatherlink.com 1.10,2018-02-19 05:52:00,
2018-02-19 01:08:00,70.2,66.0,30.18,ESE,105,0.0,0.0,87,0.00,,,0.00,weatherlink.com 1.10,2018-02-19 06:08:00,
2018-02-19 01:23:00,69.9,66.0,30.18,South,169,0.0,0.0,87,0.00,,,0.00,weatherlink.com 1.10,2018-02-19 06:23:00,
2018-02-19 01:38:00,69.9,66.0,30.18,ESE,117,0.0,0.0,88,0.00,,,0.00,weatherlink.com 1.10,2018-02-19 06:38:00,
2018-02-19 01:53:00,69.8,66.0,30.18,SSE,150,0.0,0.0,88,0.00,,,0.00,weatherlink.com 1.10,2018-02-19 06:53:00,
2018-02-19 02:08:00,69.8,66.0,30.18,SE,131,0.0,0.0,88,0.00,,,0.00,weatherlink.com 1.10,2018-02-19 07:08:00,
2018-02-19 02:23:00,69.6,66.0,30.18,SSE,155,0.0,0.0,88,0.00,,,0.00,weatherlink.com 1.10,2018-02-19 07:23:00,
2018-02-19 02:38:00,69.3,66.0,30.18,SSE,163,0.0,0.0,89,0.00,,,0.00,weatherlink.com 1.10,2018-02-19 07:38:00,
2018-02-19 02:53:00,69.2,66.0,30.18,SE,142,0.0,0.0,89,0.00,,,0.00,weatherlink.com 1.10,2018-02-19 07:53:00,
2018-02-19 03:08:00,69.2,66.0,30.18,SE,146,0.0,0.0,90,0.00,,,0.00,weatherlink.com 1.10,2018-02-19 08:08:00,
2018-02-19 03:24:00,69.1,66.0,30.18,SSE,148,0.0,0.0,90,0.00,,,0.00,weatherlink.com 1.10,2018-02-19 08:24:00,
2018-02-19 03:38:00,68.8,66.0,30.18,SSE,151,0.0,0.0,90,0.00,,,0.00,weatherlink.com 1.10,2018-02-19 08:38:00,
2018-02-19 03:58:00,68.6,66.0,30.18,SSE,150,0.0,0.0,91,0.00,,,0.00,weatherlink.com 1.10,2018-02-19 08:58:00,
2018-02-19 04:10:00,68.3,66.0,30.18,SE,138,0.0,0.0,91,0.00,,,0.00,weatherlink.com 1.10,2018-02-19 09:10:00,
2018-02-19 04:23:00,67.9,66.0,30.18,SSE,147,0.0,0.0,92,0.00,,,0.00,weatherlink.com 1.10,2018-02-19 09:23:00,
2018-02-19 04:41:00,67.6,65.0,30.18,SE,142,0.0,0.0,92,0.00,,,0.00,weatherlink.com 1.10,2018-02-19 09:41:00,
2018-02-19 05:08:00,67.4,65.0,30.19,ESE,111,0.0,0.0,93,0.00,,,0.00,weatherlink.com 1.10,2018-02-19 10:08:00,
2018-02-19 05:23:00,67.3,65.0,30.19,ESE,117,0.0,0.0,93,0.00,,,0.00,weatherlink.com 1.10,2018-02-19 10:23:00,
2018-02-19 05:38:00,67.4,66.0,30.20,ESE,108,0.0,0.0,94,0.00,,,0.00,weatherlink.com 1.10,2018-02-19 10:38:00,
2018-02-19 05:53:00,67.2,66.0,30.20,SSE,157,0.0,0.0,94,0.00,,,0.00,weatherlink.com 1.10,2018-02-19 10:53:00,
2018-02-19 06:08:00,67.2,66.0,30.20,ESE,122,0.0,0.0,94,0.00,,,0.00,weatherlink.com 1.10,2018-02-19 11:08:00,
2018-02-19 06:23:00,67.1,65.0,30.21,East,96,0.0,0.0,94,0.00,,,0.00,weatherlink.com 1.10,2018-02-19 11:23:00,
2018-02-19 06:38:00,67.0,65.0,30.21,SE,129,0.0,0.0,94,0.00,,,0.00,weatherlink.com 1.10,2018-02-19 11:38:00,
2018-02-19 06:53:00,67.0,66.0,30.21,ESE,113,0.0,0.0,95,0.00,,,0.00,weatherlink.com 1.10,2018-02-19 11:53:00,
2018-02-19 07:08:00,66.8,65.0,30.22,SE,132,0.0,0.0,95,0.00,,,0.00,weatherlink.com 1.10,2018-02-19 12:08:00,
2018-02-19 07:23:00,66.9,66.0,30.22,East,101,0.0,0.0,95,0.00,,,0.00,weatherlink.com 1.10,2018-02-19 12:23:00,
2018-02-19 07:38:00,67.1,66.0,30.23,ESE,119,0.0,0.0,95,0.00,,,0.00,weatherlink.com 1.10,2018-02-19 12:38:00,
2018-02-19 07:53:00,68.0,67.0,30.23,SE,124,0.0,0.0,95,0.00,,,0.00,weatherlink.com 1.10,2018-02-19 12:53:00,
2018-02-19 08:08:00,68.8,67.0,30.23,East,86,0.0,0.0,95,0.00,,,0.00,weatherlink.com 1.10,2018-02-19 13:08:00,
2018-02-19 08:23:00,69.9,68.0,30.24,SSE,147,0.0,0.0,94,0.00,,,0.00,weatherlink.com 1.10,2018-02-19 13:23:00,
2018-02-19 08:38:00,71.1,69.0,30.24,South,176,0.0,0.0,93,0.00,,,0.00,weatherlink.com 1.10,2018-02-19 13:38:00,
2018-02-19 08:53:00,72.0,69.0,30.24,ESE,117,0.0,0.0,91,0.00,,,0.00,weatherlink.com 1.10,2018-02-19 13:53:00,
2018-02-19 09:08:00,73.2,70.0,30.24,South,182,0.0,0.0,88,0.00,,,0.00,weatherlink.com 1.10,2018-02-19 14:08:00,
2018-02-19 09:23:00,73.8,69.0,30.24,SSE,157,0.0,0.0,85,0.00,,,0.00,weatherlink.com 1.10,2018-02-19 14:23:00,
2018-02-19 09:38:00,74.8,69.0,30.24,SSE,163,0.0,0.0,82,0.00,,,0.00,weatherlink.com 1.10,2018-02-19 14:38:00,
2018-02-19 09:53:00,75.6,69.0,30.25,ESE,103,0.0,0.0,80,0.00,,,0.00,weatherlink.com 1.10,2018-02-19 14:53:00,
2018-02-19 10:09:00,77.1,69.0,30.25,SSW,192,0.0,0.0,75,0.00,,,0.00,weatherlink.com 1.10,2018-02-19 15:09:00,
2018-02-19 10:24:00,78.1,68.0,30.25,South,173,0.0,0.0,72,0.00,,,0.00,weatherlink.com 1.10,2018-02-19 15:24:00,
2018-02-19 10:39:00,78.7,68.0,30.25,SSW,192,0.0,0.0,70,0.00,,,0.00,weatherlink.com 1.10,2018-02-19 15:39:00,
2018-02-19 10:54:00,79.6,68.0,30.25,SE,133,0.0,0.0,67,0.00,,,0.00,weatherlink.com 1.10,2018-02-19 15:54:00,
2018-02-19 11:09:00,80.2,66.0,30.24,South,169,0.0,0.0,62,0.00,,,0.00,weatherlink.com 1.10,2018-02-19 16:09:00,
2018-02-19 11:24:00,81.2,67.0,30.24,South,173,0.0,0.0,62,0.00,,,0.00,weatherlink.com 1.10,2018-02-19 16:24:00,
2018-02-19 11:39:00,81.7,66.0,30.24,SSE,159,0.0,0.0,59,0.00,,,0.00,weatherlink.com 1.10,2018-02-19 16:39:00,